This demonstration page uses our WeatherBlox Daily Observations layout. Learn more.

Left ArrowRight Arrow

41.12389, -100.76542

Hourly Observations for August 20, 2019

Temp ( °F °C ) Dew Point ( °F °C ) Humidity (%) Winds ( mph kmh ) Pressure ( in mb ) Visibility ( mi km ) Precip ( " mm )
12:53 am 00:53 Clear 72 22.2 70 21.1 94 94 ESE 7 11 29.87 1012 9 14 0.00 0.00
1:53 am 01:53 Clear with Mist and Fog 70 21.1 69 20.6 97 97 ESE 5 7 29.86 1011 5 8 0.00 0.00
2:44 am 02:44 Clear with Mist and Fog 69 20.6 68 20 96 96 SE 6 9 29.84 1010 3 4 0.00 0.00
2:53 am 02:53 Clear with Mist and Fog 69 20.6 68 20 96 96 SE 5 7 29.86 1011 4 6 0.00 0.00
3:53 am 03:53 Clear 68 20 67 19.4 96 96 Calm 29.86 1011 9 14 0.00 0.00
4:53 am 04:53 Clear 68 20 66 18.9 93 93 Calm 29.86 1011 9 14 0.00 0.00
5:07 am 05:07 Clear with Mist and Fog 66 18.9 65 18.3 96 96 Calm 29.84 1011 2 3 0.00 0.00
5:20 am 05:20 Clear with Mist and Fog 67 19.4 65 18.3 93 93 SE 3 6 29.85 1011 3 5 0.00 0.00
5:53 am 05:53 Clear with Mist and Fog 67 19.4 65 18.3 93 93 Calm 29.87 1011 6 10 0.00 0.00
6:53 am 06:53 Clear 66 18.9 64 17.8 93 93 NW 3 6 29.88 1012 8 13 0.00 0.00
7:53 am 07:53 Sunny with Mist and Fog 68 20 66 18.9 93 93 Calm 29.88 1012 6 10 0.00 0.00
8:53 am 08:53 Sunny 74 23.3 71 21.7 91 91 Calm 29.91 1013 10 16 0.00 0.00
9:53 am 09:53 Sunny 81 27.2 71 21.7 72 72 E 3 6 29.91 1013 10 16 0.00 0.00
10:53 am 10:53 Sunny 87 30.6 69 20.6 55 55 E 3 6 29.91 1013 10 16 0.00 0.00
11:53 am 11:53 Sunny 89 31.7 67 19.4 48 48 E 9 15 29.93 1013 10 16 0.00 0.00
12:53 pm 12:53 Sunny 90 32.2 68 20 48 48 E 18 30 29.93 1014 10 16 0.00 0.00
1:53 pm 13:53 Sunny 91 32.8 65 18.3 42 42 E 20 31 29.94 1014 10 16 0.00 0.00
2:53 pm 14:53 Sunny 90 32.2 67 19.4 47 47 ESE 20 31 29.93 1013 10 16 0.00 0.00
3:53 pm 15:53 Sunny 90 32.2 70 21.1 52 52 E 18 30 29.93 1013 10 16 0.00 0.00
4:53 pm 16:53 Sunny 88 31.1 69 20.6 54 54 E 17 28 29.93 1013 10 16 0.00 0.00
5:53 pm 17:53 Mostly Sunny 89 31.7 72 22.2 57 57 ESE 18 30 29.93 1013 10 16 0.00 0.00
6:53 pm 18:53 Partly Cloudy 85 29.4 71 21.7 63 63 ESE 13 20 29.93 1014 10 16 0.00 0.00
7:53 pm 19:53 Mostly Sunny 83 28.3 71 21.7 67 67 E 10 17 29.96 1014 10 16 0.00 0.00
8:53 pm 20:53 Clear 79 26.1 72 22.2 79 79 E 8 13 29.95 1014 10 16 0.00 0.00
9:53 pm 21:53 Clear 78 25.6 73 22.8 85 85 E 10 17 29.96 1014 10 16 0.00 0.00
10:53 pm 22:53 Partly Cloudy 77 25 72 22.2 85 85 E 10 17 29.97 1015 10 16 0.00 0.00
11:01 pm 23:01 Mostly Cloudy 77 25 72 22.2 85 85 E 10 17 29.91 1013 10 16 0.00 0.00
11:24 pm 23:24 Partly Cloudy 76 24.4 72 22.2 88 88 ESE 10 17 29.91 1013 10 16 0.00 0.00
11:53 pm 23:53 Partly Cloudy 76 24.4 72 22.2 88 88 E 8 13 29.96 1015 10 16 0.00 0.00

Powered by AerisWeather